Zurück zum Katalog

STARLINK-32533

AktivKommunikationVLEO
NORAD 61706·PAYLOAD·🇺🇸 United States

Gestartet Oct 30, 2024 von Vandenberg Space Force Base

Loading…

Nächste Überflüge (nächste 24 Stunden)

TLE

AktuellSource: CelesTrak SupGP

Epoche: Sep 14, 2026, 13:53 UTC

1 61706C 24195V   26257.57895833 -.00068119  00000+0 -20135-2 0  2577
2 61706  53.1592 353.3706 0001247  85.3683  12.9350 15.34410328    13

Verfolge STARLINK-32533 in Echtzeit mit AllMySat

Download on the App Store